SCP
1 1 1 1 1 1 1 1 1 2 2 1 1 2 2 2 1 1 1 1 1 1 1 1 1 1 1 1 1 1 1 1 1 1 1 1 1 1 1 1 0 0 0
1 1 1 2 1 1 1 1 1 2 1 1 1 2 2 2 1 1 1 1 1 1 1 1 1 1 1 1 1 1 1 0 1 1 1 1 1 1 1 1 0 0 0
1 1 1 2 2 2 2 1 1 1 2 1 2 2 2 2 1 1 1 1 1 1 1 1 1 1 1 1 1 1 0 0 0 0 0 0 0 1 1 0 0 0 0
1 1 2 2 2 2 2 2 2 1 2 2 2 2 2 2 2 1 1 1 1 1 1 1 1 1 1 1 1 1 1 1 1 1 0 0 0 0 1 0 0 0 0
1 1 2 3 3 3 3 2 2 2 2 2 2 2 2 2 2 1 1 1 1 1 1 1 1 1 1 1 1 1 1 1 1 1 0 0 0 0 1 1 1 0 0
1 2 3 4 4 3 3 2 2 2 2 2 2 2 2 2 1 1 1 1 1 1 1 1 1 1 1 1 1 1 1 1 1 0 0 0 0 1 1 1 1 1 1
1 1 2 4 4 4 3 3 2 2 2 2 2 2 2 2 1 1 1 1 1 1 1 1 1 1 1 1 1 1 1 1 1 0 0 0 0 1 1 1 1 1 1
1 1 2 3 4 4 4 3 3 2 2 2 2 2 2 2 1 1 1 1 1 1 1 1 1 0 0 0 0 1 1 1 0 0 0 0 0 1 1 1 1 1 1
1 1 1 2 3 4 3 3 2 2 2 2 2 2 2 2 1 1 1 1 1 1 1 1 1 1 0 0 0 0 1 0 0 0 0 0 0 1 1 1 1 1 1
1 1 1 2 2 2 2 2 2 2 2 2 2 2 3 2 1 1 1 1 1 1 1 1 1 1 1 1 1 1 1 0 0 0 0 0 0 1 1 1 1 1 1
1 1 1 1 1 1 1 1 1 1 2 1 2 2 2 1 1 1 1 1 1 1 1 1 1 1 1 1 1 1 1 1 0 0 0 0 0 1 1 1 1 1 1
1 1 1 1 1 1 1 1 1 1 1 1 1 1 1 1 0 1 1 1 1 1 1 1 1 1 1 1 1 1 1 0 0 0 0 0 1 1 1 1 1 1 1
2 1 1 1 1 1 1 1 1 1 1 1 1 1 0 0 0 0 1 1 1 1 1 1 1 1 1 1 1 1 0 0 0 0 0 1 1 1 1 1 1 1 1
2 1 1 1 1 1 1 1 1 0 0 0 0 1 1 0 0 0 0 0 1 1 0 1 0 0 0 0 0 0 0 0 0 0 0 1 1 1 1 1 1 1 1
2 1 1 1 1 1 1 1 1 1 0 0 0 1 1 1 0 0 0 0 1 0 0 0 0 0 0 0 0 0 0 0 0 0 1 1 1 1 1 1 1 1 1
2 1 1 1 1 1 2 2 1 1 1 1 1 1 1 1 1 0 1 1 1 1 1 1 1 0 0 0 0 0 0 0 0 0 0 1 1 1 1 2 1 1 1
2 1 1 1 2 2 2 2 2 1 1 1 1 1 1 1 1 1 1 1 1 1 0 1 1 1 0 0 0 0 0 0 0 0 0 0 1 1 1 1 2 2 2
2 2 1 2 2 3 3 2 2 1 1 1 1 1 1 1 1 1 1 1 1 1 0 0 0 0 0 0 0 0 0 0 0 0 0 0 0 1 1 1 2 2 2
2 2 2 2 3 3 3 3 2 2 2 2 1 1 2 2 2 1 1 1 1 1 1 0 0 0 0 0 0 0 0 1 1 0 0 0 0 0 1 1 1 2 2
4 3 2 2 3 3 3 3 2 2 2 2 2 1 2 3 2 1 1 1 1 1 1 0 0 0 0 0 0 0 1 1 1 1 0 0 0 0 1 1 1 2 2
5 5 4 4 4 4 4 3 3 2 2 2 2 1 2 2 2 2 2 2 1 1 1 1 0 0 0 0 0 1 1 1 1 1 0 0 0 0 1 1 1 2 2
6 5 4 4 4 4 4 3 3 2 2 2 2 1 1 1 2 2 2 2 1 1 1 1 1 1 1 0 1 1 1 1 0 0 0 0 0 0 1 1 1 2 2
4 4 4 4 4 3 3 3 3 2 2 2 2 1 1 2 2 2 2 2 1 1 1 1 1 1 1 1 1 1 1 0 0 0 0 0 0 0 0 1 1 2 2
3 3 4 3 3 3 2 2 2 2 2 2 2 2 2 2 2 2 2 2 1 1 1 1 1 1 1 1 1 1 1 1 0 0 0 1 1 0 0 0 1 1 2
3 4 4 3 3 2 2 2 2 2 1 1 1 2 2 2 2 2 2 2 2 1 1 1 1 1 1 1 1 1 1 1 1 1 1 1 1 1 1 1 1 1 2
4 4 4 3 3 2 2 2 2 2 1 1 1 2 2 2 2 2 2 2 2 2 2 1 1 1 1 1 1 1 1 1 1 1 1 1 1 1 1 1 1 1 1
Wind_Speed
4 6 10 10 11 11 11 10 10 10 9 10 10 10 10 11 11 12 12 12 12 12 11 10 10 10 9 9 9 9 9 10 10 10 9 9 9 9 8 9 8 6 8
8 8 10 11 11 11 11 10 10 10 9 9 10 10 10 10 11 11 12 12 12 11 11 10 9 9 8 8 8 8 8 8 8 8 8 7 7 7 7 7 7 5 8
9 8 9 11 11 11 11 10 10 10 9 9 9 9 10 10 11 11 12 12 11 11 10 10 9 8 8 7 7 7 7 7 7 8 7 3 4 6 6 7 7 8 7
10 7 9 12 11 11 11 10 10 10 10 9 9 9 10 10 11 12 12 11 11 11 10 9 9 8 7 7 6 6 6 6 6 6 3 3 3 6 7 7 7 7 7
8 7 9 13 11 11 11 10 10 10 10 9 9 10 10 10 11 12 12 11 11 10 10 9 8 7 7 6 6 6 5 5 5 4 2 2 2 6 7 7 7 6 6
9 7 8 12 12 11 11 11 10 10 10 9 10 10 10 10 11 11 11 11 10 10 10 9 8 8 7 6 6 5 5 4 4 2 2 2 2 6 7 7 7 7 6
8 6 8 12 12 11 11 10 10 10 9 9 9 10 11 11 10 11 11 11 10 10 10 9 8 7 6 6 5 5 4 4 3 2 2 2 3 6 8 7 7 7 6
10 7 6 11 12 11 10 9 9 9 9 9 9 10 11 11 10 10 10 10 10 9 9 9 8 7 6 5 4 3 3 4 4 3 2 3 5 7 8 8 7 7 7
9 8 5 5 7 9 10 9 8 9 9 8 8 9 11 11 10 10 9 9 9 9 9 8 7 7 6 5 4 3 3 4 2 2 3 3 6 7 8 8 8 8 7
7 6 5 4 4 4 5 7 8 8 9 8 7 10 11 10 10 10 8 8 9 8 8 7 7 6 6 5 4 4 3 3 2 2 2 3 6 8 8 8 8 8 8
6 5 5 4 4 4 3 5 6 7 8 7 6 8 7 4 4 5 7 8 8 8 7 7 6 6 5 5 5 4 3 2 2 2 2 5 6 8 9 9 9 9 8
6 5 5 5 4 3 3 2 1 3 4 3 3 3 3 3 3 4 6 8 7 7 7 7 6 5 4 2 3 4 2 2 2 2 3 7 8 8 9 9 9 9 9
7 7 5 5 5 4 2 2 1 2 2 3 3 3 3 2 2 2 2 3 3 4 2 3 3 2 2 1 1 2 2 2 2 2 3 7 8 8 9 9 9 9 9
7 7 6 6 5 4 3 3 2 2 2 2 3 3 3 2 2 2 2 2 2 1 2 2 2 2 2 2 3 3 3 3 2 2 4 8 9 9 9 10 10 10 9
7 6 7 6 5 4 3 3 3 3 3 3 3 3 3 3 3 2 2 2 2 2 2 2 2 2 2 3 3 4 4 4 4 4 3 8 10 9 10 10 10 10 9
8 7 6 6 5 5 4 3 3 3 2 2 2 3 4 3 3 3 2 2 2 2 2 2 3 3 2 2 3 3 4 4 4 4 3 5 9 10 10 10 10 10 10
8 7 6 7 5 4 4 4 3 3 3 2 2 3 3 3 3 3 3 2 2 2 2 2 2 2 2 2 3 3 3 4 4 5 4 3 4 7 9 9 9 9 9
8 7 6 6 5 4 4 3 2 2 2 2 2 2 3 3 3 3 2 2 2 2 2 2 2 2 2 2 2 3 2 2 4 5 4 4 3 3 6 9 9 9 9
8 8 6 5 5 4 3 3 2 2 2 2 2 2 2 3 3 3 2 2 2 2 2 3 2 2 2 2 2 3 2 2 3 4 4 4 4 4 3 5 8 9 9
8 7 6 5 5 4 3 2 1 1 1 1 2 2 3 3 3 3 2 2 2 2 2 2 2 2 2 2 2 1 2 2 2 3 4 3 3 5 4 4 3 5 8
7 7 6 6 5 4 2 2 2 1 1 1 1 2 2 3 3 3 2 2 2 3 3 3 2 2 2 1 0 1 2 2 2 2 2 2 3 3 3 3 3 2 2
9 8 7 6 5 5 3 3 2 2 1 1 1 1 2 2 2 3 2 2 3 2 2 2 2 2 2 2 2 1 1 3 2 2 1 1 2 2 3 4 4 3 2
9 9 8 7 6 5 4 3 2 2 1 1 0 0 1 2 2 2 2 3 2 2 2 2 2 3 2 1 1 3 2 2 2 2 1 1 1 1 2 2 4 4 4
9 8 8 7 6 5 4 4 4 3 2 2 1 1 1 1 2 2 2 2 2 2 2 2 2 2 2 1 1 1 2 3 2 1 2 1 1 1 1 2 3 3 4
8 7 7 6 6 5 5 5 4 3 2 1 1 1 1 1 1 2 2 2 2 2 2 1 1 2 2 2 1 1 1 0 1 2 1 2 1 1 1 2 1 2 3
7 7 7 6 5 5 5 5 5 5 3 3 2 1 1 1 1 1 2 2 2 2 2 2 1 2 1 1 1 1 1 1 1 2 2 1 1 1 1 0 1 2 2
Wind_Direction
163 167 157 146 141 138 135 131 129 127 125 125 126 127 128 128 130 133 136 137 137 137 137 140 138 134 133 134 132 133 135 138 139 139 139 139 141 140 137 135 133 128 129
156 162 155 144 142 141 137 134 132 130 129 128 129 130 132 134 136 139 140 142 142 141 141 140 137 135 134 134 134 131 134 139 141 139 136 137 139 139 141 140 139 137 137
147 158 153 143 141 142 141 139 136 134 133 132 133 136 137 138 140 144 143 144 144 143 143 143 141 139 137 136 136 134 135 135 137 134 127 121 129 131 134 142 142 139 141
148 154 150 147 145 144 143 140 138 138 137 136 138 139 140 140 142 145 146 145 145 144 144 145 144 144 141 139 142 140 140 139 136 134 127 133 140 136 134 133 138 145 148
141 148 152 149 148 145 143 141 140 139 139 139 141 143 142 140 141 145 147 147 148 149 149 148 147 147 144 144 148 146 148 143 142 137 134 149 149 147 146 144 144 147 150
142 147 150 149 148 146 145 143 141 141 141 141 145 146 146 144 144 147 149 150 152 153 153 151 149 151 150 149 147 148 154 147 142 140 152 160 165 162 160 158 158 158 156
145 146 153 152 148 148 146 142 142 142 141 141 144 147 148 148 149 149 150 153 156 157 156 154 152 153 151 147 148 152 160 158 144 138 151 162 175 167 165 167 168 165 164
143 146 153 154 148 148 148 146 146 145 144 143 147 152 154 153 152 152 154 156 160 162 162 162 158 159 160 155 156 157 164 169 153 151 155 172 174 168 171 176 173 171 172
142 145 150 155 153 154 152 153 157 153 149 145 151 159 159 158 156 158 161 163 165 169 170 171 170 171 169 169 171 171 167 160 156 169 178 184 180 179 183 182 178 178 182
140 147 149 149 147 153 158 159 164 159 153 146 145 148 153 159 162 165 167 168 169 172 174 177 179 181 180 187 193 194 185 170 183 194 187 190 189 190 191 186 186 188 191
138 151 151 156 155 154 160 166 171 163 157 156 151 148 151 152 160 167 170 173 174 178 182 186 190 198 199 209 214 214 203 194 191 200 202 202 200 200 198 195 196 200 201
152 162 160 163 168 165 167 154 159 148 148 145 137 146 142 146 165 172 174 178 178 183 190 196 203 210 214 221 227 224 205 200 203 207 210 209 210 205 204 203 201 204 209
161 162 167 169 169 168 164 144 132 121 131 138 145 148 143 146 156 168 164 179 182 180 185 193 206 214 212 219 232 220 202 210 214 222 216 207 210 212 209 207 207 209 213
153 164 165 168 166 169 154 147 142 130 138 150 160 158 152 150 155 165 168 163 170 174 176 185 193 199 212 225 220 207 200 207 212 219 217 210 213 217 215 214 215 216 218
154 162 167 166 167 163 150 151 145 153 156 165 170 172 163 158 165 165 168 164 174 174 176 180 194 202 216 227 218 206 205 209 213 218 224 216 217 221 220 217 214 215 220
158 159 156 160 165 153 152 156 155 164 163 163 170 173 165 163 165 158 158 165 180 185 185 184 196 202 219 221 226 222 217 218 216 214 216 221 220 221 222 218 215 218 223
156 155 156 156 154 150 154 160 155 160 152 156 170 173 162 162 169 160 158 172 192 181 173 180 200 205 215 222 236 235 230 223 214 213 212 217 219 223 220 215 214 220 222
148 148 156 153 149 151 150 152 147 149 147 158 161 168 169 169 170 157 161 187 192 176 179 188 196 205 226 229 239 245 244 237 225 219 213 209 208 225 226 221 216 215 216
155 154 152 143 144 151 150 146 143 140 148 156 155 166 176 174 172 162 172 196 187 183 200 213 191 190 213 236 240 242 242 235 235 226 220 209 206 211 213 220 215 215 219
158 155 152 144 147 146 137 120 104 102 133 150 163 177 183 184 179 168 178 190 177 185 211 218 200 198 210 227 249 258 253 239 228 227 226 212 208 208 201 210 214 222 220
152 149 153 151 158 150 141 142 143 164 175 182 194 184 182 183 183 173 181 177 175 188 207 207 195 205 228 204 171 314 315 275 233 232 227 208 214 206 185 190 195 203 214
159 160 158 160 164 163 165 163 162 157 180 184 190 181 186 182 182 176 171 176 182 183 194 199 188 185 219 181 162 133 340 338 312 268 228 200 207 194 195 195 191 192 204
164 168 168 167 163 166 159 138 120 84 56 55 46 236 226 202 198 187 176 174 179 173 185 197 183 171 194 234 171 155 164 230 299 324 287 205 193 192 207 199 198 198 203
174 169 165 165 162 163 154 149 152 158 170 199 198 207 234 208 194 196 181 171 171 166 178 203 187 174 163 205 255 210 187 174 171 300 322 304 221 200 223 216 209 202 200
169 164 164 161 160 164 161 162 159 164 180 182 171 191 238 254 223 191 171 159 167 175 183 189 171 168 172 181 195 203 203 178 165 168 268 313 343 290 240 224 201 198 197
159 160 162 158 167 169 165 161 161 167 165 155 168 184 230 264 256 208 177 177 187 186 185 186 181 164 167 167 174 167 165 164 188 171 201 239 276 283 284 254 175 193 196